Tracking 25963 objects as of 12-Aug-2022
HD Live streaming from Space Station
objects crossing your sky now

STF-1

Track STF-1 now!
10-day predictions


NORAD ID: 43852
Int'l Code: 2018-104D
Perigee: 480.4 km
Apogee: 500.4 km
Inclination: 85.0 °
Period: 94.3 minutes
Semi major axis: 6861 km
RCS: Unknown
Launch date: December 16, 2018
Source: United States (US)
Launch site: Rocket Lab Launch Complex (RLLC)
aabbcc
Your satellite tracking list
Your tracking list is empty




NASA's NSSDC Master Catalog

Two Line Element Set (TLE):
1 43852U 18104D   22223.44409902  .00008365  00000-0  30846-3 0  9995
2 43852  85.0314  15.8609 0014574  77.6498 282.6378 15.27522386202939
Source of the keplerian elements: AFSPC